Time,TemperatureF,DewpointF,PressureIn,WindDirection,WindDirectionDegrees,WindSpeedMPH,WindSpeedGustMPH,Humidity,HourlyPrecipIn,Conditions,Clouds,dailyrainin,SoftwareType,DateUTC
2013-10-05 00:01:00,56.9,48.6,30.10,North,0,0.0,0.0,74,0.00,,,0.00,WUHU216HW,2013-10-05 04:01:00,
2013-10-05 00:02:00,56.9,48.6,30.10,North,0,0.0,0.0,74,0.00,,,0.00,WUHU216HW,2013-10-05 04:02:00,
2013-10-05 00:07:00,56.9,48.6,30.10,North,0,0.0,0.0,74,0.00,,,0.00,WUHU216HW,2013-10-05 04:07:00,
2013-10-05 00:12:00,56.9,48.6,30.10,North,0,0.0,0.0,74,0.00,,,0.00,WUHU216HW,2013-10-05 04:12:00,
2013-10-05 00:17:00,56.9,48.6,30.10,North,0,0.0,0.0,74,0.00,,,0.00,WUHU216HW,2013-10-05 04:17:00,
2013-10-05 00:22:00,56.7,48.4,30.10,North,0,0.0,0.0,74,0.00,,,0.00,WUHU216HW,2013-10-05 04:22:00,
2013-10-05 00:27:00,56.7,48.4,30.10,North,0,0.0,0.0,74,0.00,,,0.00,WUHU216HW,2013-10-05 04:27:00,
2013-10-05 00:32:00,56.5,48.2,30.10,North,0,0.0,0.0,74,0.00,,,0.00,WUHU216HW,2013-10-05 04:32:00,
2013-10-05 00:37:00,56.5,48.2,30.10,North,0,0.0,0.0,74,0.00,,,0.00,WUHU216HW,2013-10-05 04:37:00,
2013-10-05 00:42:00,56.5,48.6,30.10,North,0,0.0,0.0,75,0.00,,,0.00,WUHU216HW,2013-10-05 04:42:00,
2013-10-05 00:47:00,56.7,48.8,30.11,North,0,0.0,0.0,75,0.00,,,0.00,WUHU216HW,2013-10-05 04:47:00,
2013-10-05 00:52:00,56.5,48.6,30.11,North,0,0.0,0.0,75,0.00,,,0.00,WUHU216HW,2013-10-05 04:52:00,
2013-10-05 00:57:00,56.7,48.8,30.11,North,0,0.0,0.0,75,0.00,,,0.00,WUHU216HW,2013-10-05 04:57:00,
2013-10-05 01:02:00,56.3,48.5,30.11,North,0,0.0,0.0,75,0.00,,,0.00,WUHU216HW,2013-10-05 05:02:00,
2013-10-05 01:07:00,56.3,48.5,30.11,North,0,0.0,0.0,75,0.00,,,0.00,WUHU216HW,2013-10-05 05:07:00,
2013-10-05 01:12:00,56.3,48.5,30.11,North,0,0.0,0.0,75,0.00,,,0.00,WUHU216HW,2013-10-05 05:12:00,
2013-10-05 01:17:00,56.3,48.5,30.11,North,0,0.0,0.0,75,0.00,,,0.00,WUHU216HW,2013-10-05 05:17:00,
2013-10-05 01:22:00,56.3,48.5,30.11,North,0,0.0,0.0,75,0.00,,,0.00,WUHU216HW,2013-10-05 05:22:00,
2013-10-05 01:27:00,56.5,48.6,30.11,North,0,0.0,0.0,75,0.00,,,0.00,WUHU216HW,2013-10-05 05:27:00,
2013-10-05 01:32:00,56.5,48.6,30.11,North,0,0.0,0.0,75,0.00,,,0.00,WUHU216HW,2013-10-05 05:32:00,
2013-10-05 01:37:00,56.3,48.5,30.11,North,0,0.0,0.0,75,0.00,,,0.00,WUHU216HW,2013-10-05 05:37:00,
2013-10-05 01:42:00,56.2,48.3,30.11,North,0,0.0,0.0,75,0.00,,,0.00,WUHU216HW,2013-10-05 05:42:00,
2013-10-05 01:47:00,56.2,48.3,30.11,North,0,0.0,0.0,75,0.00,,,0.00,WUHU216HW,2013-10-05 05:47:00,
2013-10-05 01:52:00,56.2,48.3,30.11,North,0,0.0,0.0,75,0.00,,,0.00,WUHU216HW,2013-10-05 05:52:00,
2013-10-05 01:57:00,56.2,48.3,30.11,North,0,0.0,0.0,75,0.00,,,0.00,WUHU216HW,2013-10-05 05:57:00,
2013-10-05 02:02:00,56.3,48.5,30.11,North,0,0.0,0.0,75,0.00,,,0.00,WUHU216HW,2013-10-05 06:02:00,
2013-10-05 02:07:00,56.3,48.5,30.11,North,0,0.0,0.0,75,0.00,,,0.00,WUHU216HW,2013-10-05 06:07:00,
2013-10-05 02:12:00,56.3,48.5,30.11,North,0,0.0,0.0,75,0.00,,,0.00,WUHU216HW,2013-10-05 06:12:00,
2013-10-05 02:17:00,56.3,48.5,30.11,North,0,0.0,0.0,75,0.00,,,0.00,WUHU216HW,2013-10-05 06:17:00,
2013-10-05 02:22:00,56.3,48.5,30.11,North,0,0.0,0.0,75,0.00,,,0.00,WUHU216HW,2013-10-05 06:22:00,
2013-10-05 02:27:00,56.2,48.3,30.11,North,0,0.0,0.0,75,0.00,,,0.00,WUHU216HW,2013-10-05 06:27:00,
2013-10-05 02:32:00,56.2,48.3,30.10,North,0,0.0,0.0,75,0.00,,,0.00,WUHU216HW,2013-10-05 06:32:00,
2013-10-05 02:37:00,56.2,48.3,30.10,North,0,0.0,0.0,75,0.00,,,0.00,WUHU216HW,2013-10-05 06:37:00,
2013-10-05 02:42:00,56.0,48.2,30.10,North,0,0.0,0.0,75,0.00,,,0.00,WUHU216HW,2013-10-05 06:42:00,
2013-10-05 02:47:00,55.8,48.0,30.10,North,0,0.0,0.0,75,0.00,,,0.00,WUHU216HW,2013-10-05 06:47:00,
2013-10-05 02:52:00,55.8,48.0,30.09,North,0,0.0,0.0,75,0.00,,,0.00,WUHU216HW,2013-10-05 06:52:00,
2013-10-05 02:57:00,55.8,48.0,30.09,North,0,0.0,0.0,75,0.00,,,0.00,WUHU216HW,2013-10-05 06:57:00,
2013-10-05 03:02:00,55.8,48.0,30.10,North,0,0.0,0.0,75,0.00,,,0.00,WUHU216HW,2013-10-05 07:02:00,
2013-10-05 03:07:00,55.8,48.0,30.10,North,0,0.0,0.0,75,0.00,,,0.00,WUHU216HW,2013-10-05 07:07:00,
2013-10-05 03:12:00,55.8,48.0,30.10,North,0,0.0,0.0,75,0.00,,,0.00,WUHU216HW,2013-10-05 07:12:00,
2013-10-05 03:17:00,56.0,48.2,30.10,North,0,0.0,0.0,75,0.00,,,0.00,WUHU216HW,2013-10-05 07:17:00,
2013-10-05 03:22:00,56.2,48.3,30.10,North,0,0.0,0.0,75,0.00,,,0.00,WUHU216HW,2013-10-05 07:22:00,
2013-10-05 03:27:00,56.2,48.3,30.11,North,0,0.0,0.0,75,0.00,,,0.00,WUHU216HW,2013-10-05 07:27:00,
2013-10-05 03:32:00,56.2,48.3,30.11,North,0,0.0,0.0,75,0.00,,,0.00,WUHU216HW,2013-10-05 07:32:00,
2013-10-05 03:37:00,55.8,48.0,30.10,North,0,0.0,0.0,75,0.00,,,0.00,WUHU216HW,2013-10-05 07:37:00,
2013-10-05 03:42:00,55.8,48.0,30.11,North,0,0.0,0.0,75,0.00,,,0.00,WUHU216HW,2013-10-05 07:42:00,
2013-10-05 03:47:00,55.8,48.0,30.11,North,0,0.0,0.0,75,0.00,,,0.00,WUHU216HW,2013-10-05 07:47:00,
2013-10-05 03:52:00,55.8,48.0,30.11,North,0,0.0,0.0,75,0.00,,,0.00,WUHU216HW,2013-10-05 07:52:00,
2013-10-05 03:57:00,55.8,48.0,30.11,North,0,0.0,0.0,75,0.00,,,0.00,WUHU216HW,2013-10-05 07:57:00,
2013-10-05 04:02:00,55.6,47.8,30.11,North,0,0.0,0.0,75,0.00,,,0.00,WUHU216HW,2013-10-05 08:02:00,
2013-10-05 04:07:00,55.6,47.8,30.11,North,0,0.0,0.0,75,0.00,,,0.00,WUHU216HW,2013-10-05 08:07:00,
2013-10-05 04:12:00,55.6,47.8,30.11,North,0,0.0,0.0,75,0.00,,,0.00,WUHU216HW,2013-10-05 08:12:00,
2013-10-05 04:17:00,55.6,47.8,30.11,North,0,0.0,0.0,75,0.00,,,0.00,WUHU216HW,2013-10-05 08:17:00,
2013-10-05 04:22:00,55.4,47.6,30.12,North,0,0.0,0.0,75,0.00,,,0.00,WUHU216HW,2013-10-05 08:22:00,
2013-10-05 04:27:00,55.4,47.6,30.12,North,0,0.0,0.0,75,0.00,,,0.00,WUHU216HW,2013-10-05 08:27:00,
2013-10-05 04:32:00,55.4,47.6,30.12,North,0,0.0,0.0,75,0.00,,,0.00,WUHU216HW,2013-10-05 08:32:00,
2013-10-05 04:37:00,55.4,47.6,30.12,North,0,0.0,0.0,75,0.00,,,0.00,WUHU216HW,2013-10-05 08:37:00,
2013-10-05 04:42:00,55.4,47.6,30.12,North,0,0.0,0.0,75,0.00,,,0.00,WUHU216HW,2013-10-05 08:42:00,
2013-10-05 04:47:00,55.4,47.6,30.12,North,0,0.0,0.0,75,0.00,,,0.00,WUHU216HW,2013-10-05 08:47:00,
2013-10-05 04:52:00,55.4,47.6,30.12,North,0,0.0,0.0,75,0.00,,,0.00,WUHU216HW,2013-10-05 08:52:00,
2013-10-05 04:57:00,55.4,47.6,30.12,North,0,0.0,0.0,75,0.00,,,0.00,WUHU216HW,2013-10-05 08:57:00,
2013-10-05 05:02:00,55.3,47.4,30.12,North,0,0.0,0.0,75,0.00,,,0.00,WUHU216HW,2013-10-05 09:02:00,
2013-10-05 05:07:00,55.1,47.6,30.12,North,0,0.0,0.0,76,0.00,,,0.00,WUHU216HW,2013-10-05 09:07:00,
2013-10-05 05:12:00,55.1,47.6,30.12,North,0,0.0,0.0,76,0.00,,,0.00,WUHU216HW,2013-10-05 09:12:00,
2013-10-05 05:17:00,55.1,47.6,30.12,North,0,0.0,0.0,76,0.00,,,0.00,WUHU216HW,2013-10-05 09:17:00,
2013-10-05 05:22:00,55.1,47.3,30.12,North,0,0.0,0.0,75,0.00,,,0.00,WUHU216HW,2013-10-05 09:22:00,
2013-10-05 05:27:00,55.1,47.6,30.12,North,0,0.0,0.0,76,0.00,,,0.00,WUHU216HW,2013-10-05 09:27:00,
2013-10-05 05:32:00,55.1,47.6,30.12,North,0,0.0,0.0,76,0.00,,,0.00,WUHU216HW,2013-10-05 09:32:00,
2013-10-05 05:37:00,55.1,47.6,30.12,North,0,0.0,0.0,76,0.00,,,0.00,WUHU216HW,2013-10-05 09:37:00,
2013-10-05 05:42:00,54.9,47.4,30.12,North,0,0.0,0.0,76,0.00,,,0.00,WUHU216HW,2013-10-05 09:42:00,
2013-10-05 05:47:00,54.9,47.4,30.12,North,0,0.0,0.0,76,0.00,,,0.00,WUHU216HW,2013-10-05 09:47:00,
2013-10-05 05:52:00,54.9,47.4,30.12,North,0,0.0,0.0,76,0.00,,,0.00,WUHU216HW,2013-10-05 09:52:00,
2013-10-05 05:57:00,55.1,47.6,30.12,North,0,0.0,0.0,76,0.00,,,0.00,WUHU216HW,2013-10-05 09:57:00,
2013-10-05 06:02:00,54.7,47.3,30.12,North,0,0.0,0.0,76,0.00,,,0.00,WUHU216HW,2013-10-05 10:02:00,
2013-10-05 06:07:00,54.7,47.3,30.13,North,0,0.0,0.0,76,0.00,,,0.00,WUHU216HW,2013-10-05 10:07:00,
2013-10-05 06:12:00,54.7,47.3,30.13,North,0,0.0,0.0,76,0.00,,,0.00,WUHU216HW,2013-10-05 10:12:00,
2013-10-05 06:17:00,54.7,47.3,30.13,North,0,0.0,0.0,76,0.00,,,0.00,WUHU216HW,2013-10-05 10:17:00,
2013-10-05 06:22:00,54.7,47.3,30.13,North,0,0.0,0.0,76,0.00,,,0.00,WUHU216HW,2013-10-05 10:22:00,
2013-10-05 06:27:00,54.5,47.1,30.13,North,0,0.0,0.0,76,0.00,,,0.00,WUHU216HW,2013-10-05 10:27:00,
2013-10-05 06:32:00,54.5,47.1,30.13,North,0,0.0,0.0,76,0.00,,,0.00,WUHU216HW,2013-10-05 10:32:00,
2013-10-05 06:37:00,54.5,47.1,30.13,North,0,0.0,0.0,76,0.00,,,0.00,WUHU216HW,2013-10-05 10:37:00,
2013-10-05 06:42:00,54.5,47.1,30.13,North,0,0.0,0.0,76,0.00,,,0.00,WUHU216HW,2013-10-05 10:42:00,
2013-10-05 06:47:00,54.5,47.1,30.13,North,0,0.0,0.0,76,0.00,,,0.00,WUHU216HW,2013-10-05 10:47:00,
2013-10-05 06:52:00,54.5,47.1,30.13,North,0,0.0,0.0,76,0.00,,,0.00,WUHU216HW,2013-10-05 10:52:00,
2013-10-05 06:57:00,54.5,47.1,30.13,North,0,0.0,0.0,76,0.00,,,0.00,WUHU216HW,2013-10-05 10:57:00,
2013-10-05 07:02:00,54.7,47.3,30.14,North,0,0.0,0.0,76,0.00,,,0.00,WUHU216HW,2013-10-05 11:02:00,
2013-10-05 07:07:00,54.7,47.3,30.13,North,0,0.0,0.0,76,0.00,,,0.00,WUHU216HW,2013-10-05 11:07:00,
2013-10-05 07:12:00,54.7,47.3,30.13,North,0,0.0,0.0,76,0.00,,,0.00,WUHU216HW,2013-10-05 11:12:00,
2013-10-05 07:17:00,54.7,47.3,30.13,North,0,0.0,0.0,76,0.00,,,0.00,WUHU216HW,2013-10-05 11:17:00,
2013-10-05 07:22:00,54.5,47.1,30.13,North,0,0.0,0.0,76,0.00,,,0.00,WUHU216HW,2013-10-05 11:22:00,
2013-10-05 07:27:00,54.5,47.1,30.14,North,0,0.0,0.0,76,0.00,,,0.00,WUHU216HW,2013-10-05 11:27:00,
2013-10-05 07:32:00,54.5,47.1,30.14,North,0,0.0,0.0,76,0.00,,,0.00,WUHU216HW,2013-10-05 11:32:00,
2013-10-05 07:37:00,54.5,47.1,30.14,North,0,0.0,0.0,76,0.00,,,0.00,WUHU216HW,2013-10-05 11:37:00,
2013-10-05 07:42:00,54.4,46.6,30.14,North,0,0.0,0.0,75,0.00,,,0.00,WUHU216HW,2013-10-05 11:42:00,
2013-10-05 07:47:00,54.4,46.6,30.14,North,0,0.0,0.0,75,0.00,,,0.00,WUHU216HW,2013-10-05 11:47:00,
2013-10-05 07:52:00,54.4,46.6,30.14,North,0,0.0,0.0,75,0.00,,,0.00,WUHU216HW,2013-10-05 11:52:00,
2013-10-05 07:57:00,54.2,46.5,30.14,North,0,0.0,0.0,75,0.00,,,0.00,WUHU216HW,2013-10-05 11:57:00,
2013-10-05 08:02:00,54.2,46.5,30.15,North,0,0.0,0.0,75,0.00,,,0.00,WUHU216HW,2013-10-05 12:02:00,
2013-10-05 08:07:00,54.0,46.3,30.14,North,0,0.0,0.0,75,0.00,,,0.00,WUHU216HW,2013-10-05 12:07:00,
2013-10-05 08:12:00,54.2,46.5,30.15,North,0,0.0,0.0,75,0.00,,,0.00,WUHU216HW,2013-10-05 12:12:00,
2013-10-05 08:17:00,54.2,46.5,30.15,North,0,0.0,0.0,75,0.00,,,0.00,WUHU216HW,2013-10-05 12:17:00,
2013-10-05 08:22:00,54.4,46.6,30.15,North,0,0.0,0.0,75,0.00,,,0.00,WUHU216HW,2013-10-05 12:22:00,
2013-10-05 08:27:00,54.5,47.1,30.15,North,0,0.0,0.0,76,0.00,,,0.00,WUHU216HW,2013-10-05 12:27:00,
2013-10-05 08:32:00,54.7,47.3,30.15,North,0,0.0,0.0,76,0.00,,,0.00,WUHU216HW,2013-10-05 12:32:00,
2013-10-05 08:37:00,54.7,47.3,30.15,North,0,0.0,0.0,76,0.00,,,0.00,WUHU216HW,2013-10-05 12:37:00,
2013-10-05 08:42:00,54.7,47.3,30.15,North,0,0.0,0.0,76,0.00,,,0.00,WUHU216HW,2013-10-05 12:42:00,
2013-10-05 08:47:00,54.7,47.3,30.15,North,0,0.0,0.0,76,0.00,,,0.00,WUHU216HW,2013-10-05 12:47:00,
2013-10-05 08:52:00,54.7,47.3,30.14,North,0,0.0,0.0,76,0.00,,,0.00,WUHU216HW,2013-10-05 12:52:00,
2013-10-05 08:57:00,54.9,47.4,30.15,North,0,0.0,0.0,76,0.00,,,0.00,WUHU216HW,2013-10-05 12:57:00,
2013-10-05 09:02:00,55.1,47.6,30.15,North,0,0.0,0.0,76,0.00,,,0.00,WUHU216HW,2013-10-05 13:02:00,
2013-10-05 09:07:00,55.1,47.3,30.15,North,0,0.0,0.0,75,0.00,,,0.00,WUHU216HW,2013-10-05 13:07:00,
2013-10-05 09:12:00,55.1,47.3,30.14,North,0,0.0,0.0,75,0.00,,,0.00,WUHU216HW,2013-10-05 13:12:00,
2013-10-05 09:17:00,55.3,47.4,30.14,North,0,0.0,0.0,75,0.00,,,0.00,WUHU216HW,2013-10-05 13:17:00,
2013-10-05 09:22:00,55.3,47.4,30.15,North,0,0.0,0.0,75,0.00,,,0.00,WUHU216HW,2013-10-05 13:22:00,
2013-10-05 09:27:00,55.3,47.4,30.15,North,0,0.0,0.0,75,0.00,,,0.00,WUHU216HW,2013-10-05 13:27:00,
2013-10-05 09:32:00,55.4,47.6,30.15,North,0,0.0,0.0,75,0.00,,,0.00,WUHU216HW,2013-10-05 13:32:00,
2013-10-05 09:37:00,55.4,47.6,30.15,North,0,0.0,0.0,75,0.00,,,0.00,WUHU216HW,2013-10-05 13:37:00,
2013-10-05 09:42:00,55.6,47.8,30.15,North,0,0.0,0.0,75,0.00,,,0.00,WUHU216HW,2013-10-05 13:42:00,
2013-10-05 09:47:00,55.6,47.4,30.15,North,0,0.0,0.0,74,0.00,,,0.00,WUHU216HW,2013-10-05 13:47:00,
2013-10-05 09:52:00,55.6,47.4,30.15,North,0,0.0,0.0,74,0.00,,,0.00,WUHU216HW,2013-10-05 13:52:00,
2013-10-05 09:57:00,55.8,47.6,30.15,North,0,0.0,0.0,74,0.00,,,0.00,WUHU216HW,2013-10-05 13:57:00,
2013-10-05 10:02:00,55.8,47.6,30.15,North,0,0.0,0.0,74,0.00,,,0.00,WUHU216HW,2013-10-05 14:02:00,
2013-10-05 10:07:00,55.8,47.6,30.15,North,0,0.0,0.0,74,0.00,,,0.00,WUHU216HW,2013-10-05 14:07:00,
2013-10-05 10:12:00,56.0,47.8,30.15,North,0,0.0,0.0,74,0.00,,,0.00,WUHU216HW,2013-10-05 14:12:00,
2013-10-05 10:17:00,56.2,48.0,30.15,North,0,0.0,0.0,74,0.00,,,0.00,WUHU216HW,2013-10-05 14:17:00,
2013-10-05 10:22:00,56.2,48.0,30.15,North,0,0.0,0.0,74,0.00,,,0.00,WUHU216HW,2013-10-05 14:22:00,
2013-10-05 10:27:00,56.2,48.0,30.15,North,0,0.0,0.0,74,0.00,,,0.00,WUHU216HW,2013-10-05 14:27:00,
2013-10-05 10:32:00,56.2,48.0,30.15,North,0,0.0,0.0,74,0.00,,,0.00,WUHU216HW,2013-10-05 14:32:00,
2013-10-05 10:37:00,56.3,48.2,30.14,North,0,0.0,0.0,74,0.00,,,0.00,WUHU216HW,2013-10-05 14:37:00,
2013-10-05 10:42:00,56.5,48.0,30.14,South,180,0.0,0.0,73,0.00,,,0.00,WUHU216HW,2013-10-05 14:42:00,
2013-10-05 10:47:00,56.5,48.0,30.15,South,180,0.0,0.4,73,0.00,,,0.00,WUHU216HW,2013-10-05 14:47:00,
2013-10-05 10:52:00,56.7,48.1,30.15,South,180,0.7,0.7,73,0.00,,,0.00,WUHU216HW,2013-10-05 14:52:00,
2013-10-05 10:57:00,56.9,48.2,30.15,ENE,68,0.9,0.9,73,0.00,,,0.00,WUHU216HW,2013-10-05 14:57:00,
2013-10-05 11:02:00,56.7,48.1,30.15,ENE,68,0.7,0.9,73,0.00,,,0.00,WUHU216HW,2013-10-05 15:02:00,
2013-10-05 11:07:00,56.7,48.1,30.15,ENE,68,0.0,0.7,73,0.00,,,0.00,WUHU216HW,2013-10-05 15:07:00,
2013-10-05 11:12:00,57.1,48.4,30.15,ENE,68,0.0,0.9,73,0.00,,,0.00,WUHU216HW,2013-10-05 15:12:00,
2013-10-05 11:17:00,57.4,48.4,30.15,ENE,68,0.0,0.9,72,0.00,,,0.00,WUHU216HW,2013-10-05 15:17:00,
2013-10-05 11:22:00,57.6,48.6,30.15,ENE,68,0.4,0.4,72,0.00,,,0.00,WUHU216HW,2013-10-05 15:22:00,
2013-10-05 11:27:00,57.4,48.4,30.15,North,0,0.0,0.4,72,0.00,,,0.00,WUHU216HW,2013-10-05 15:27:00,
2013-10-05 11:32:00,57.6,48.6,30.15,North,0,0.0,0.4,72,0.00,,,0.00,WUHU216HW,2013-10-05 15:32:00,
2013-10-05 11:37:00,57.6,48.6,30.15,North,0,0.0,0.0,72,0.00,,,0.00,WUHU216HW,2013-10-05 15:37:00,
2013-10-05 11:42:00,57.8,48.8,30.15,North,0,0.0,0.0,72,0.00,,,0.00,WUHU216HW,2013-10-05 15:42:00,
2013-10-05 11:47:00,58.0,49.0,30.15,North,0,0.0,0.0,72,0.00,,,0.00,WUHU216HW,2013-10-05 15:47:00,
2013-10-05 11:52:00,58.0,49.0,30.14,North,0,0.0,0.0,72,0.00,,,0.00,WUHU216HW,2013-10-05 15:52:00,
2013-10-05 11:57:00,58.0,49.0,30.15,North,0,0.0,0.0,72,0.00,,,0.00,WUHU216HW,2013-10-05 15:57:00,
2013-10-05 12:02:00,58.1,48.8,30.15,North,0,0.0,0.0,71,0.00,,,0.00,WUHU216HW,2013-10-05 16:02:00,
2013-10-05 12:07:00,58.3,49.0,30.14,North,0,0.0,0.0,71,0.00,,,0.00,WUHU216HW,2013-10-05 16:07:00,
2013-10-05 12:12:00,58.5,49.1,30.14,North,0,0.0,0.0,71,0.00,,,0.00,WUHU216HW,2013-10-05 16:12:00,
2013-10-05 12:17:00,58.7,49.3,30.14,North,0,0.0,0.0,71,0.00,,,0.00,WUHU216HW,2013-10-05 16:17:00,
2013-10-05 12:22:00,58.9,49.5,30.14,North,0,0.0,0.0,71,0.00,,,0.00,WUHU216HW,2013-10-05 16:22:00,
2013-10-05 12:27:00,59.0,49.3,30.14,North,0,0.0,0.0,70,0.00,,,0.00,WUHU216HW,2013-10-05 16:27:00,
2013-10-05 12:32:00,59.0,49.3,30.14,North,0,0.0,0.0,70,0.00,,,0.00,WUHU216HW,2013-10-05 16:32:00,
2013-10-05 12:37:00,59.0,49.3,30.14,North,0,0.0,0.0,70,0.00,,,0.00,WUHU216HW,2013-10-05 16:37:00,
2013-10-05 12:42:00,59.2,49.5,30.14,North,0,0.0,0.0,70,0.00,,,0.00,WUHU216HW,2013-10-05 16:42:00,
2013-10-05 12:47:00,59.2,49.5,30.14,North,0,0.0,0.0,70,0.00,,,0.00,WUHU216HW,2013-10-05 16:47:00,
2013-10-05 12:52:00,59.4,49.7,30.13,North,0,0.0,0.0,70,0.00,,,0.00,WUHU216HW,2013-10-05 16:52:00,
2013-10-05 12:57:00,59.6,49.9,30.13,North,0,0.0,0.0,70,0.00,,,0.00,WUHU216HW,2013-10-05 16:57:00,
2013-10-05 13:02:00,59.8,50.0,30.13,North,0,0.0,0.0,70,0.00,,,0.00,WUHU216HW,2013-10-05 17:02:00,
2013-10-05 13:07:00,59.6,49.9,30.13,North,0,0.0,0.0,70,0.00,,,0.00,WUHU216HW,2013-10-05 17:07:00,
2013-10-05 13:12:00,59.6,49.9,30.13,North,0,0.0,0.0,70,0.00,,,0.00,WUHU216HW,2013-10-05 17:12:00,
2013-10-05 13:17:00,59.6,49.4,30.13,North,0,0.0,0.0,69,0.00,,,0.00,WUHU216HW,2013-10-05 17:17:00,
2013-10-05 13:22:00,59.4,49.2,30.13,North,0,0.0,0.0,69,0.00,,,0.00,WUHU216HW,2013-10-05 17:22:00,
2013-10-05 13:27:00,59.4,49.2,30.12,North,0,0.0,0.0,69,0.00,,,0.00,WUHU216HW,2013-10-05 17:27:00,
2013-10-05 13:32:00,59.6,49.4,30.12,North,0,0.0,0.0,69,0.00,,,0.00,WUHU216HW,2013-10-05 17:32:00,
2013-10-05 13:37:00,59.8,49.6,30.12,North,0,0.0,0.0,69,0.00,,,0.00,WUHU216HW,2013-10-05 17:37:00,
2013-10-05 13:42:00,59.9,49.8,30.12,North,0,0.0,0.0,69,0.00,,,0.00,WUHU216HW,2013-10-05 17:42:00,
2013-10-05 13:47:00,59.8,49.6,30.12,North,0,0.0,0.0,69,0.00,,,0.00,WUHU216HW,2013-10-05 17:47:00,
2013-10-05 13:52:00,59.8,49.6,30.11,North,0,0.0,0.0,69,0.00,,,0.00,WUHU216HW,2013-10-05 17:52:00,
2013-10-05 13:57:00,59.8,49.6,30.11,NNE,23,0.0,0.0,69,0.00,,,0.00,WUHU216HW,2013-10-05 17:57:00,
2013-10-05 14:02:00,59.8,49.6,30.11,NNE,23,0.0,0.4,69,0.00,,,0.00,WUHU216HW,2013-10-05 18:02:00,
2013-10-05 14:07:00,59.9,50.2,30.11,NNE,23,0.0,0.4,70,0.00,,,0.00,WUHU216HW,2013-10-05 18:07:00,
2013-10-05 14:12:00,59.9,50.2,30.12,NNE,23,0.0,0.0,70,0.00,,,0.00,WUHU216HW,2013-10-05 18:12:00,
2013-10-05 14:17:00,59.8,50.0,30.11,NNE,23,0.0,0.0,70,0.00,,,0.00,WUHU216HW,2013-10-05 18:17:00,
2013-10-05 14:22:00,59.8,50.0,30.11,NNE,23,0.0,0.0,70,0.00,,,0.00,WUHU216HW,2013-10-05 18:22:00,
2013-10-05 14:27:00,59.8,50.0,30.11,NNE,23,0.4,0.4,70,0.00,,,0.00,WUHU216HW,2013-10-05 18:27:00,
2013-10-05 14:32:00,59.9,50.2,30.11,NNE,23,0.0,0.4,70,0.00,,,0.00,WUHU216HW,2013-10-05 18:32:00,
2013-10-05 14:37:00,60.1,50.4,30.11,SE,135,0.0,1.1,70,0.00,,,0.00,WUHU216HW,2013-10-05 18:37:00,
2013-10-05 14:42:00,60.1,50.4,30.12,SE,135,0.0,1.1,70,0.00,,,0.00,WUHU216HW,2013-10-05 18:42:00,
2013-10-05 14:47:00,59.9,50.2,30.11,SE,135,0.6,0.9,70,0.00,,,0.00,WUHU216HW,2013-10-05 18:47:00,
2013-10-05 14:52:00,59.9,50.2,30.11,SE,135,0.2,0.9,70,0.00,,,0.00,WUHU216HW,2013-10-05 18:52:00,
2013-10-05 14:57:00,59.8,50.0,30.12,SE,135,0.0,0.4,70,0.00,,,0.00,WUHU216HW,2013-10-05 18:57:00,
2013-10-05 15:02:00,59.8,50.0,30.12,SE,135,0.2,0.2,70,0.00,,,0.00,WUHU216HW,2013-10-05 19:02:00,
2013-10-05 15:07:00,59.8,50.0,30.11,SE,135,0.4,0.4,70,0.00,,,0.00,WUHU216HW,2013-10-05 19:07:00,
2013-10-05 15:12:00,59.6,49.9,30.12,SE,135,0.4,0.4,70,0.00,,,0.00,WUHU216HW,2013-10-05 19:12:00,
2013-10-05 15:17:00,59.4,49.7,30.12,SE,135,0.7,0.7,70,0.00,,,0.00,WUHU216HW,2013-10-05 19:17:00,
2013-10-05 15:22:00,59.4,49.7,30.12,SE,135,0.0,0.7,70,0.00,,,0.00,WUHU216HW,2013-10-05 19:22:00,
2013-10-05 15:27:00,59.6,49.9,30.12,North,0,0.0,0.0,70,0.00,,,0.00,WUHU216HW,2013-10-05 19:27:00,
2013-10-05 15:32:00,59.4,49.7,30.12,SE,135,0.0,0.0,70,0.00,,,0.00,WUHU216HW,2013-10-05 19:32:00,
2013-10-05 15:37:00,59.2,49.5,30.12,North,0,0.0,0.0,70,0.00,,,0.00,WUHU216HW,2013-10-05 19:37:00,
2013-10-05 15:42:00,59.2,49.5,30.11,North,0,0.0,0.0,70,0.00,,,0.00,WUHU216HW,2013-10-05 19:42:00,
2013-10-05 15:47:00,59.2,49.5,30.11,North,0,0.0,0.0,70,0.00,,,0.00,WUHU216HW,2013-10-05 19:47:00,
2013-10-05 15:52:00,59.2,49.5,30.12,North,0,0.0,0.0,70,0.00,,,0.00,WUHU216HW,2013-10-05 19:52:00,
2013-10-05 15:57:00,59.0,49.3,30.12,North,0,0.0,0.0,70,0.00,,,0.00,WUHU216HW,2013-10-05 19:57:00,
2013-10-05 16:02:00,59.0,49.3,30.11,North,0,0.0,0.0,70,0.00,,,0.00,WUHU216HW,2013-10-05 20:02:00,
2013-10-05 16:07:00,59.0,49.3,30.12,North,0,0.0,0.0,70,0.00,,,0.00,WUHU216HW,2013-10-05 20:07:00,
2013-10-05 16:12:00,59.2,49.9,30.12,North,0,0.0,0.0,71,0.00,,,0.00,WUHU216HW,2013-10-05 20:12:00,
2013-10-05 16:17:00,59.2,49.9,30.12,North,0,0.0,0.0,71,0.00,,,0.00,WUHU216HW,2013-10-05 20:17:00,
2013-10-05 16:22:00,59.2,49.9,30.12,North,0,0.0,0.0,71,0.00,,,0.00,WUHU216HW,2013-10-05 20:22:00,
2013-10-05 16:27:00,59.4,50.0,30.12,North,0,0.0,0.0,71,0.00,,,0.00,WUHU216HW,2013-10-05 20:27:00,
2013-10-05 16:32:00,59.4,50.0,30.12,North,0,0.0,0.0,71,0.00,,,0.00,WUHU216HW,2013-10-05 20:32:00,
2013-10-05 16:37:00,59.4,49.7,30.12,North,0,0.0,0.0,70,0.00,,,0.00,WUHU216HW,2013-10-05 20:37:00,
2013-10-05 16:42:00,59.4,49.7,30.12,North,0,0.0,0.0,70,0.00,,,0.00,WUHU216HW,2013-10-05 20:42:00,
2013-10-05 16:47:00,59.4,50.0,30.12,North,0,0.0,0.0,71,0.00,,,0.00,WUHU216HW,2013-10-05 20:47:00,
2013-10-05 16:52:00,59.4,50.0,30.12,North,0,0.0,0.0,71,0.00,,,0.00,WUHU216HW,2013-10-05 20:52:00,
2013-10-05 16:57:00,59.4,50.0,30.12,North,0,0.0,0.0,71,0.00,,,0.00,WUHU216HW,2013-10-05 20:57:00,
2013-10-05 17:02:00,59.4,50.0,30.12,North,0,0.0,0.0,71,0.00,,,0.00,WUHU216HW,2013-10-05 21:02:00,
2013-10-05 17:07:00,59.6,50.2,30.13,North,0,0.0,0.0,71,0.00,,,0.00,WUHU216HW,2013-10-05 21:07:00,
2013-10-05 17:12:00,59.4,50.0,30.13,North,0,0.0,0.0,71,0.00,,,0.00,WUHU216HW,2013-10-05 21:12:00,
2013-10-05 17:17:00,59.4,50.0,30.13,North,0,0.0,0.0,71,0.00,,,0.00,WUHU216HW,2013-10-05 21:17:00,
2013-10-05 17:22:00,59.2,49.9,30.13,North,0,0.0,0.0,71,0.00,,,0.00,WUHU216HW,2013-10-05 21:22:00,
2013-10-05 17:27:00,59.0,49.7,30.13,North,0,0.0,0.0,71,0.00,,,0.00,WUHU216HW,2013-10-05 21:27:00,
2013-10-05 17:32:00,59.0,49.7,30.13,North,0,0.0,0.0,71,0.00,,,0.00,WUHU216HW,2013-10-05 21:32:00,
2013-10-05 17:37:00,58.9,49.5,30.13,North,0,0.0,0.0,71,0.00,,,0.00,WUHU216HW,2013-10-05 21:37:00,
2013-10-05 17:42:00,58.9,49.5,30.13,North,0,0.0,0.0,71,0.00,,,0.00,WUHU216HW,2013-10-05 21:42:00,
2013-10-05 17:47:00,58.9,49.5,30.13,North,0,0.0,0.0,71,0.00,,,0.00,WUHU216HW,2013-10-05 21:47:00,
2013-10-05 17:52:00,58.9,49.5,30.13,North,0,0.0,0.0,71,0.00,,,0.00,WUHU216HW,2013-10-05 21:52:00,
2013-10-05 17:57:00,58.9,49.5,30.13,North,0,0.0,0.0,71,0.00,,,0.00,WUHU216HW,2013-10-05 21:57:00,
2013-10-05 18:02:00,58.7,49.7,30.12,North,0,0.0,0.0,72,0.00,,,0.00,WUHU216HW,2013-10-05 22:02:00,
2013-10-05 18:07:00,58.7,49.7,30.12,North,0,0.0,0.0,72,0.00,,,0.00,WUHU216HW,2013-10-05 22:07:00,
2013-10-05 18:12:00,58.5,49.5,30.13,North,0,0.0,0.0,72,0.00,,,0.00,WUHU216HW,2013-10-05 22:12:00,
2013-10-05 18:17:00,58.7,49.7,30.13,North,0,0.0,0.0,72,0.00,,,0.00,WUHU216HW,2013-10-05 22:17:00,
2013-10-05 18:22:00,58.7,49.7,30.13,North,0,0.0,0.0,72,0.00,,,0.00,WUHU216HW,2013-10-05 22:22:00,
2013-10-05 18:27:00,58.7,49.7,30.13,North,0,0.0,0.0,72,0.00,,,0.00,WUHU216HW,2013-10-05 22:27:00,
2013-10-05 18:32:00,58.5,49.5,30.13,North,0,0.0,0.0,72,0.00,,,0.00,WUHU216HW,2013-10-05 22:32:00,
2013-10-05 18:37:00,58.3,49.3,30.13,North,0,0.0,0.0,72,0.00,,,0.00,WUHU216HW,2013-10-05 22:37:00,
2013-10-05 18:42:00,58.3,49.3,30.12,North,0,0.0,0.0,72,0.00,,,0.00,WUHU216HW,2013-10-05 22:42:00,
2013-10-05 18:47:00,58.3,49.3,30.13,North,0,0.0,0.0,72,0.00,,,0.00,WUHU216HW,2013-10-05 22:47:00,
2013-10-05 18:52:00,58.1,49.1,30.13,North,0,0.0,0.0,72,0.00,,,0.00,WUHU216HW,2013-10-05 22:52:00,
2013-10-05 18:57:00,58.1,49.1,30.14,North,0,0.0,0.0,72,0.00,,,0.00,WUHU216HW,2013-10-05 22:57:00,
2013-10-05 19:02:00,58.0,49.0,30.13,North,0,0.0,0.0,72,0.00,,,0.00,WUHU216HW,2013-10-05 23:02:00,
2013-10-05 19:07:00,58.0,49.0,30.14,North,0,0.0,0.0,72,0.00,,,0.00,WUHU216HW,2013-10-05 23:07:00,
2013-10-05 19:12:00,58.0,49.0,30.14,North,0,0.0,0.0,72,0.00,,,0.00,WUHU216HW,2013-10-05 23:12:00,
2013-10-05 19:17:00,58.1,49.1,30.14,North,0,0.0,0.0,72,0.00,,,0.00,WUHU216HW,2013-10-05 23:17:00,
2013-10-05 19:22:00,58.0,49.0,30.14,North,0,0.0,0.0,72,0.00,,,0.00,WUHU216HW,2013-10-05 23:22:00,
2013-10-05 19:27:00,58.0,49.0,30.14,North,0,0.0,0.0,72,0.00,,,0.00,WUHU216HW,2013-10-05 23:27:00,
2013-10-05 19:32:00,58.1,49.1,30.14,North,0,0.0,0.0,72,0.00,,,0.00,WUHU216HW,2013-10-05 23:32:00,
2013-10-05 19:37:00,58.3,49.3,30.14,North,0,0.0,0.0,72,0.00,,,0.00,WUHU216HW,2013-10-05 23:37:00,
2013-10-05 19:42:00,58.3,49.3,30.14,North,0,0.0,0.0,72,0.00,,,0.00,WUHU216HW,2013-10-05 23:42:00,
2013-10-05 19:47:00,58.1,49.1,30.13,North,0,0.0,0.0,72,0.00,,,0.00,WUHU216HW,2013-10-05 23:47:00,
2013-10-05 19:52:00,58.0,49.0,30.13,North,0,0.0,0.0,72,0.00,,,0.00,WUHU216HW,2013-10-05 23:52:00,
2013-10-05 19:57:00,58.0,49.0,30.13,North,0,0.0,0.0,72,0.00,,,0.00,WUHU216HW,2013-10-05 23:57:00,
2013-10-05 20:02:00,58.0,49.0,30.13,North,0,0.0,0.0,72,0.00,,,0.00,WUHU216HW,2013-10-06 00:02:00,
2013-10-05 20:07:00,57.8,49.1,30.13,North,0,0.0,0.0,73,0.00,,,0.00,WUHU216HW,2013-10-06 00:07:00,
2013-10-05 20:12:00,57.8,49.1,30.13,North,0,0.0,0.0,73,0.00,,,0.00,WUHU216HW,2013-10-06 00:12:00,
2013-10-05 20:17:00,57.8,49.1,30.13,North,0,0.0,0.0,73,0.00,,,0.00,WUHU216HW,2013-10-06 00:17:00,
2013-10-05 20:22:00,57.6,49.0,30.13,North,0,0.0,0.0,73,0.00,,,0.00,WUHU216HW,2013-10-06 00:22:00,
2013-10-05 20:27:00,57.6,49.0,30.14,North,0,0.0,0.0,73,0.00,,,0.00,WUHU216HW,2013-10-06 00:27:00,
2013-10-05 20:32:00,57.6,49.0,30.14,North,0,0.0,0.0,73,0.00,,,0.00,WUHU216HW,2013-10-06 00:32:00,
2013-10-05 20:37:00,57.4,48.8,30.14,North,0,0.0,0.0,73,0.00,,,0.00,WUHU216HW,2013-10-06 00:37:00,
2013-10-05 20:42:00,57.4,48.8,30.14,West,270,0.0,0.0,73,0.00,,,0.00,WUHU216HW,2013-10-06 00:42:00,
2013-10-05 20:47:00,57.4,48.8,30.14,North,0,0.0,0.0,73,0.00,,,0.00,WUHU216HW,2013-10-06 00:47:00,
2013-10-05 20:52:00,57.6,49.0,30.14,North,0,0.0,0.0,73,0.00,,,0.00,WUHU216HW,2013-10-06 00:52:00,
2013-10-05 20:57:00,57.6,49.0,30.14,North,0,0.0,0.0,73,0.00,,,0.00,WUHU216HW,2013-10-06 00:57:00,
2013-10-05 21:02:00,57.6,49.0,30.14,North,0,0.0,0.0,73,0.00,,,0.00,WUHU216HW,2013-10-06 01:02:00,
2013-10-05 21:07:00,57.4,48.8,30.14,North,0,0.0,0.0,73,0.00,,,0.00,WUHU216HW,2013-10-06 01:07:00,
2013-10-05 21:12:00,57.4,48.8,30.14,North,0,0.0,0.0,73,0.00,,,0.00,WUHU216HW,2013-10-06 01:12:00,
2013-10-05 21:17:00,57.4,48.8,30.14,North,0,0.0,0.0,73,0.00,,,0.00,WUHU216HW,2013-10-06 01:17:00,
2013-10-05 21:22:00,57.2,48.6,30.14,North,0,0.0,0.0,73,0.00,,,0.00,WUHU216HW,2013-10-06 01:22:00,
2013-10-05 21:27:00,57.2,48.6,30.15,North,0,0.0,0.0,73,0.00,,,0.00,WUHU216HW,2013-10-06 01:27:00,
2013-10-05 21:32:00,57.2,48.6,30.15,North,0,0.0,0.0,73,0.00,,,0.00,WUHU216HW,2013-10-06 01:32:00,
2013-10-05 21:37:00,57.2,48.6,30.15,North,0,0.0,0.0,73,0.00,,,0.00,WUHU216HW,2013-10-06 01:37:00,
2013-10-05 21:42:00,57.1,48.4,30.16,North,0,0.0,0.0,73,0.00,,,0.00,WUHU216HW,2013-10-06 01:42:00,
2013-10-05 21:47:00,57.1,48.8,30.16,North,0,0.0,0.0,74,0.00,,,0.00,WUHU216HW,2013-10-06 01:47:00,
2013-10-05 21:52:00,56.9,48.6,30.16,North,0,0.0,0.0,74,0.00,,,0.00,WUHU216HW,2013-10-06 01:52:00,
2013-10-05 21:57:00,56.9,48.6,30.16,North,0,0.0,0.0,74,0.00,,,0.00,WUHU216HW,2013-10-06 01:57:00,
2013-10-05 22:02:00,56.9,48.6,30.16,WSW,248,0.0,0.0,74,0.00,,,0.00,WUHU216HW,2013-10-06 02:02:00,
2013-10-05 22:07:00,56.9,48.6,30.16,WSW,248,0.0,0.0,74,0.00,,,0.00,WUHU216HW,2013-10-06 02:07:00,
2013-10-05 22:12:00,56.9,48.6,30.15,SW,217,0.6,0.7,74,0.00,,,0.00,WUHU216HW,2013-10-06 02:12:00,
2013-10-05 22:17:00,56.9,48.6,30.16,SSW,203,0.2,0.7,74,0.00,,,0.00,WUHU216HW,2013-10-06 02:17:00,
2013-10-05 22:22:00,56.9,48.6,30.16,North,0,0.0,0.4,74,0.00,,,0.00,WUHU216HW,2013-10-06 02:22:00,
2013-10-05 22:27:00,56.9,48.6,30.15,North,0,0.0,0.2,74,0.00,,,0.00,WUHU216HW,2013-10-06 02:27:00,
2013-10-05 22:32:00,57.1,48.8,30.15,North,0,0.0,0.0,74,0.00,,,0.00,WUHU216HW,2013-10-06 02:32:00,
2013-10-05 22:37:00,57.1,48.8,30.15,North,0,0.0,0.0,74,0.00,,,0.00,WUHU216HW,2013-10-06 02:37:00,
2013-10-05 22:42:00,57.1,48.8,30.15,North,0,0.0,0.0,74,0.00,,,0.00,WUHU216HW,2013-10-06 02:42:00,
2013-10-05 22:47:00,56.9,48.6,30.15,North,0,0.0,0.0,74,0.00,,,0.00,WUHU216HW,2013-10-06 02:47:00,
2013-10-05 22:52:00,56.9,48.6,30.15,North,0,0.0,0.0,74,0.00,,,0.00,WUHU216HW,2013-10-06 02:52:00,
2013-10-05 22:57:00,56.9,48.6,30.15,North,0,0.0,0.0,74,0.00,,,0.00,WUHU216HW,2013-10-06 02:57:00,
2013-10-05 23:02:00,56.7,48.4,30.15,North,0,0.0,0.0,74,0.00,,,0.00,WUHU216HW,2013-10-06 03:02:00,
2013-10-05 23:07:00,56.7,48.4,30.16,North,0,0.0,0.0,74,0.00,,,0.00,WUHU216HW,2013-10-06 03:07:00,
2013-10-05 23:12:00,56.7,48.4,30.16,North,0,0.0,0.0,74,0.00,,,0.00,WUHU216HW,2013-10-06 03:12:00,
2013-10-05 23:17:00,56.7,48.4,30.16,North,0,0.0,0.0,74,0.00,,,0.00,WUHU216HW,2013-10-06 03:17:00,
2013-10-05 23:22:00,56.5,48.2,30.16,North,0,0.0,0.0,74,0.00,,,0.00,WUHU216HW,2013-10-06 03:22:00,
2013-10-05 23:27:00,56.5,48.2,30.16,North,0,0.0,0.0,74,0.00,,,0.00,WUHU216HW,2013-10-06 03:27:00,
2013-10-05 23:32:00,56.5,48.2,30.16,North,0,0.0,0.0,74,0.00,,,0.00,WUHU216HW,2013-10-06 03:32:00,
2013-10-05 23:37:00,56.5,48.2,30.16,North,0,0.0,0.0,74,0.00,,,0.00,WUHU216HW,2013-10-06 03:37:00,
2013-10-05 23:42:00,56.5,48.2,30.16,North,0,0.0,0.0,74,0.00,,,0.00,WUHU216HW,2013-10-06 03:42:00,
2013-10-05 23:47:00,56.5,48.2,30.15,North,0,0.0,0.0,74,0.00,,,0.00,WUHU216HW,2013-10-06 03:47:00,
2013-10-05 23:52:00,56.5,48.2,30.15,North,0,0.0,0.0,74,0.00,,,0.00,WUHU216HW,2013-10-06 03:52:00,
2013-10-05 23:57:00,56.5,48.2,30.15,North,0,0.0,0.0,74,0.00,,,0.00,WUHU216HW,2013-10-06 03:57:00,